Date String (YYYY-MM-DD hh:mm:ss) UTC,Instrument flags,Ambient pressure (hPa),Sample flow (lpm),Bypass flow (lpm),Sample temperature (°C),Ambient temperature (°C),ASC tube jacket temperature (°C),LED temperature (°C),Box temperature (°C),Sample RH (%),Span deviation,Mass concentration (μg/m³),Mass concentration (μg/m³),Mass concentration (μg/m³)
DateTimeUTC,F1_M11,P_M11,Q1_M11,Q2_M11,T1_M11,T2_M11,T3_M11,T4_M11,T5_M11,U1_M11,ZSPAN_M11,X0_M11,X2_M11,X1_M11
2022-03-10 08:00:00,,0823.2,5.00,0.00,22.2,22.8,00.0,31.0,24.1,05.2,0000.0,0006.67,0003.52,0003.32
2022-03-10 08:01:00,,0823.2,5.01,0.00,22.2,22.4,00.0,31.0,24.1,05.2,0000.0,0006.37,0003.52,0003.32
2022-03-10 08:02:00,,0823.2,4.99,0.00,22.2,21.9,00.0,31.0,23.9,05.2,0000.0,0006.40,0003.53,0003.32
2022-03-10 08:03:00,,0823.2,5.01,0.00,22.1,21.5,00.0,31.0,23.8,05.2,0000.0,0006.37,0003.53,0003.33
2022-03-10 08:04:00,,0823.2,4.99,0.00,22.0,21.2,00.0,31.0,23.7,05.2,0000.0,0006.27,0003.50,0003.31
2022-03-10 08:05:00,,0823.1,4.99,0.00,22.0,20.9,00.0,30.9,23.6,05.3,0000.0,0006.19,0003.48,0003.30
2022-03-10 08:06:00,,0823.1,5.01,0.00,21.9,20.7,00.0,30.9,23.4,05.3,0000.0,0006.13,0003.46,0003.29
2022-03-10 08:07:00,,0823.2,4.99,0.00,21.8,20.5,00.0,30.9,23.3,05.3,0000.0,0005.72,0003.45,0003.30
2022-03-10 08:08:00,,0823.2,5.01,0.00,21.8,21.2,00.0,30.9,23.4,05.3,0000.0,0004.48,0003.46,0003.30
2022-03-10 08:09:00,,0823.1,4.99,0.00,21.9,22.1,00.0,31.0,23.7,05.3,0000.0,0004.52,0003.47,0003.30
2022-03-10 08:10:00,,0823.1,5.00,0.00,22.1,22.7,00.0,31.0,24.0,05.2,0000.0,0004.41,0003.46,0003.29
2022-03-10 08:11:00,,0823.1,5.01,0.00,22.1,22.4,00.0,31.0,24.0,05.2,0000.0,0004.42,0003.45,0003.28
2022-03-10 08:12:00,,0823.1,5.01,0.00,22.1,21.9,00.0,31.0,23.9,05.2,0000.0,0004.64,0003.45,0003.27
2022-03-10 08:13:00,,0823.1,5.00,0.00,22.0,21.6,00.0,31.0,23.8,05.3,0000.0,0005.03,0003.48,0003.28
2022-03-10 08:14:00,,0823.1,4.99,0.00,22.0,21.3,00.0,31.0,23.7,05.3,0000.0,0005.04,0003.48,0003.27
2022-03-10 08:15:00,,0823.1,4.99,0.00,21.9,21.1,00.0,31.0,23.6,05.3,0000.0,0005.11,0003.50,0003.29
2022-03-10 08:16:00,,0823.1,5.02,0.00,21.9,20.8,00.0,30.9,23.5,05.3,0000.0,0005.16,0003.52,0003.30
2022-03-10 08:17:00,,0823.1,5.00,0.00,21.8,20.7,00.0,30.9,23.4,05.3,0000.0,0005.07,0003.51,0003.31
2022-03-10 08:18:00,,0823.1,4.99,0.00,21.8,20.8,00.0,30.9,23.4,05.3,0000.0,0005.08,0003.51,0003.30
2022-03-10 08:19:00,,0823.1,5.00,0.00,21.9,21.6,00.0,30.9,23.6,05.3,0000.0,0005.12,0003.52,0003.30
2022-03-10 08:20:00,,0823.2,5.00,0.00,22.0,22.5,00.0,31.0,23.9,05.3,0000.0,0005.13,0003.51,0003.31
2022-03-10 08:21:00,,0823.2,5.00,0.00,22.2,22.8,00.0,31.0,24.1,05.2,0000.0,0005.18,0003.53,0003.33
2022-03-10 08:22:00,,0823.2,5.03,0.00,22.2,22.5,00.0,31.0,24.1,05.2,0000.0,0005.30,0003.57,0003.35
2022-03-10 08:23:00,,0823.1,5.01,0.00,22.2,22.0,00.0,31.0,23.9,05.2,0000.0,0005.27,0003.59,0003.38
2022-03-10 08:24:00,,0823.1,5.00,0.00,22.1,21.6,00.0,31.0,23.8,05.3,0000.0,0004.97,0003.62,0003.39
2022-03-10 08:25:00,,0823.1,5.00,0.00,22.0,21.3,00.0,31.0,23.7,05.3,0000.0,0004.99,0003.62,0003.40
2022-03-10 08:26:00,,0823.1,5.00,0.00,22.0,21.0,00.0,31.0,23.6,05.3,0000.0,0005.06,0003.64,0003.40
2022-03-10 08:27:00,,0823.1,4.99,0.00,21.9,20.8,00.0,31.0,23.5,05.3,0000.0,0005.05,0003.64,0003.41
2022-03-10 08:28:00,,0823.1,5.00,0.00,21.8,20.6,00.0,30.9,23.4,05.3,0000.0,0005.07,0003.64,0003.41
2022-03-10 08:29:00,,0823.0,5.00,0.00,21.8,20.9,00.0,30.9,23.4,05.3,0000.0,0005.12,0003.66,0003.43
2022-03-10 08:30:00,,0823.1,4.99,0.00,21.9,21.8,00.0,31.0,23.6,05.3,0000.0,0005.25,0003.70,0003.44
2022-03-10 08:31:00,,0823.1,5.01,0.00,22.1,22.6,00.0,31.0,23.9,05.3,0000.0,0005.33,0003.73,0003.45
2022-03-10 08:32:00,,0823.1,4.99,0.00,22.1,22.5,00.0,31.0,24.0,05.2,0000.0,0005.33,0003.74,0003.46
2022-03-10 08:33:00,,0823.1,5.01,0.00,22.1,22.1,00.0,31.0,23.9,05.2,0000.0,0005.44,0003.74,0003.45
2022-03-10 08:34:00,,0823.0,5.00,0.00,22.1,21.6,00.0,31.0,23.8,05.2,0000.0,0005.77,0003.76,0003.46
2022-03-10 08:35:00,,0823.0,5.00,0.00,22.0,21.3,00.0,31.0,23.7,05.3,0000.0,0005.86,0003.77,0003.48
2022-03-10 08:36:00,,0822.9,5.00,0.00,21.9,20.9,00.0,31.0,23.5,05.3,0000.0,0005.94,0003.78,0003.50
2022-03-10 08:37:00,,0823.0,5.01,0.00,21.9,20.7,00.0,30.9,23.4,05.3,0000.0,0005.96,0003.80,0003.52
2022-03-10 08:38:00,,0823.0,4.99,0.00,21.8,20.6,00.0,30.9,23.3,05.3,0000.0,0006.00,0003.82,0003.54
2022-03-10 08:39:00,,0823.0,5.00,0.00,21.8,20.9,00.0,30.9,23.4,05.3,0000.0,0006.17,0003.87,0003.57
2022-03-10 08:40:00,,0823.1,5.00,0.00,21.9,21.8,00.0,30.9,23.6,05.3,0000.0,0006.22,0003.89,0003.59
2022-03-10 08:41:00,,0823.1,5.00,0.00,22.0,22.7,00.0,31.0,23.9,05.3,0000.0,0006.25,0003.90,0003.61
2022-03-10 08:42:00,,0823.1,5.00,0.00,22.1,22.7,00.0,31.0,24.0,05.2,0000.0,0006.19,0003.90,0003.63
2022-03-10 08:43:00,,0823.1,4.99,0.00,22.1,22.4,00.0,31.0,24.0,05.2,0000.0,0006.28,0003.93,0003.66
2022-03-10 08:44:00,,0823.1,5.00,0.00,22.1,22.1,00.0,31.0,23.9,05.2,0000.0,0006.14,0003.94,0003.68
2022-03-10 08:45:00,,0823.1,5.01,0.00,22.1,21.8,00.0,31.0,23.9,05.2,0000.0,0005.78,0003.95,0003.69
2022-03-10 08:46:00,,0823.1,5.00,0.00,22.1,21.6,00.0,31.0,23.8,05.2,0000.0,0005.60,0003.95,0003.70
2022-03-10 08:47:00,,0823.1,5.00,0.00,22.1,21.4,00.0,31.0,23.7,05.2,0000.0,0005.59,0003.97,0003.71
2022-03-10 08:48:00,,0823.1,5.00,0.00,22.0,21.2,00.0,31.0,23.7,05.2,0000.0,0005.64,0003.98,0003.72
2022-03-10 08:49:00,,0823.0,5.01,0.00,22.0,21.1,00.0,31.0,23.6,05.2,0000.0,0005.70,0003.99,0003.72
2022-03-10 08:50:00,,0823.0,5.00,0.00,21.9,21.2,00.0,31.0,23.6,05.2,0000.0,0005.71,0003.98,0003.71
2022-03-10 08:51:00,,0823.0,5.00,0.00,22.0,22.0,00.0,31.0,23.8,05.2,0000.0,0005.79,0003.97,0003.70
2022-03-10 08:52:00,,0823.1,5.00,0.00,22.2,22.7,00.0,31.1,24.1,05.2,0000.0,0005.69,0003.94,0003.69
2022-03-10 08:53:00,,0823.1,5.00,0.00,22.3,22.9,00.0,31.1,24.2,05.1,0000.0,0005.63,0003.93,0003.69
2022-03-10 08:54:00,,0823.0,4.98,0.00,22.3,22.6,00.0,31.1,24.2,05.1,0000.0,0005.67,0003.93,0003.68
2022-03-10 08:55:00,,0823.0,5.00,0.00,22.3,22.3,00.0,31.1,24.1,05.1,0000.0,0005.63,0003.91,0003.68
2022-03-10 08:56:00,,0822.9,5.00,0.00,22.3,21.9,00.0,31.1,24.0,05.1,0000.0,0005.58,0003.90,0003.68
2022-03-10 08:57:00,,0823.0,5.00,0.00,22.2,21.6,00.0,31.1,23.9,05.2,0000.0,0005.52,0003.89,0003.67
2022-03-10 08:58:00,,0823.0,5.01,0.00,22.2,21.4,00.0,31.1,23.9,05.2,0000.0,0006.23,0003.87,0003.66
2022-03-10 08:59:00,,0823.0,5.01,0.00,22.1,21.2,00.0,31.1,23.8,05.2,0000.0,0006.20,0003.86,0003.66
